Torna al catalogo

KHORS NO. 2

AttivoMilitareSSO
NORAD 57196·PAYLOAD·🇷🇺 Russia
Questo nome del satellite non è ancora stato confermato da fonti ufficiali.

Lanciato Jun 27, 2023 da Vostochny Cosmodrome

Loading…

Prossimi Passaggi (prossime 24 ore)

TLE

AggiornatoSource: Space-Track

Epoca: Sep 14, 2026, 12:41 UTC

1 57196U 23091AG  26257.52887228  .00011076  00000-0  33985-3 0  9993
2 57196  97.4999 325.8655 0008824 122.4234 237.7863 15.33887570178213

Traccia KHORS NO. 2 in tempo reale con AllMySat

Download on the App Store